Flag for U.S.A. Weather past 2 weeks in St. Croix Falls, Wisconsin, U.S.A.

Now
62 °F

Sunny.


Feels Like: 62 °F
Forecast: 31 / 61 °F
Wind: 5 mph from Northwest

Location: L O Simenstad Municipal Airport

Current Time: Apr 26, 2015 at 4:28:48 PM

Latest Report: Apr 26, 2015 at 3:55 PM


Visibility: 10 mi

Pressure: 30.11 "Hg

Humidity: 24%

Dew point: 25 °F

Location of St. Croix FallsLocation

Historic Weather in St. Croix Falls — Graph

°F

St. Croix Falls temperature yesterday

Maximum temperature yesterday: 62 °F (at 5:15 PM)
Minimum temperature yesterday: 40 °F (at 11:55 PM)
Average temperature yesterday: 50 °F

Past Weeks' High & Low Weather Summary

 TemperatureHumidityPressure
High74 °F (Apr 12, 4:15 PM)100% (Apr 12, 10:35 PM)30.30 "Hg (Apr 12, 10:35 PM)
Low21 °F (Apr 23, 5:55 AM)15% (Apr 15, 6:15 PM)29.49 "Hg (Apr 20, 5:15 AM)
Average50 °F53%29.94 "Hg
* Reported Apr 11 3:15 PM — Apr 26 3:15 PM, St. Croix Falls, Weather by CustomWeather, © 2015

Note: Actual official high and low records may vary slightly from our data, if they occured in-between our weather recording intervals... More about our weather records

Advertising

St. Croix Falls weather history for previous 24 hours

 ConditionsComfort  
Time TempWeatherWind HumidityBarometerVisibility
3:15 PM
Sun, Apr 26
62 °FSunny.9 mph24%30.12 "Hg5 mi
2:55 PM60 °FSunny.8 mph24%30.13 "Hg10 mi
2:15 PM60 °FSunny.8 mph25%30.13 "Hg10 mi
1:55 PM59 °FSunny.No wind26%30.14 "Hg10 mi
1:35 PM58 °FSunny.8 mph26%30.14 "Hg10 mi
1:15 PM58 °FSunny.No wind23%30.15 "Hg10 mi
12:55 PM56 °FSunny.No wind25%30.15 "Hg10 mi
12:35 PM56 °FSunny.5 mph27%30.16 "Hg10 mi
12:15 PM55 °FSunny.3 mph30%30.16 "Hg10 mi
11:55 AM55 °FSunny.5 mph31%30.16 "Hg10 mi
11:35 AM53 °FSunny.3 mph31%30.16 "Hg10 mi
11:15 AM53 °FSunny.3 mph34%30.16 "Hg10 mi
10:55 AM52 °FSunny.No wind34%30.16 "Hg10 mi
10:35 AM51 °FSunny.No wind34%30.16 "Hg10 mi
10:15 AM51 °FSunny.5 mph34%30.16 "Hg10 mi
9:55 AM50 °FSunny.5 mph36%30.16 "Hg10 mi
9:35 AM48 °FSunny.7 mph39%30.16 "Hg10 mi
9:15 AM46 °FSunny.6 mph44%30.15 "Hg10 mi
8:55 AM44 °FSunny.6 mph47%30.15 "Hg10 mi
8:35 AM43 °FSunny.5 mph50%30.14 "Hg10 mi
8:15 AM40 °FSunny.5 mph54%30.14 "Hg10 mi
7:55 AM38 °FSunny.6 mph59%30.13 "Hg10 mi
7:35 AM36 °FSunny.6 mph64%30.12 "Hg10 mi
7:15 AM33 °FSunny.No wind78%30.12 "Hg10 mi
6:55 AM30 °FClear.No wind75%30.11 "Hg10 mi
6:35 AM29 °FClear.No wind77%30.11 "Hg10 mi
6:15 AM29 °FClear.No wind75%30.10 "Hg10 mi
5:55 AM29 °FClear.No wind75%30.09 "Hg10 mi
5:35 AM29 °FClear.No wind75%30.08 "Hg10 mi
5:15 AM32 °FClear.No wind68%30.07 "Hg10 mi
4:55 AM32 °FClear.No wind67%30.07 "Hg10 mi
4:35 AM32 °FClear.3 mph68%30.06 "Hg10 mi
4:15 AM32 °FClear.3 mph66%30.06 "Hg10 mi
3:55 AM33 °FClear.No wind63%30.06 "Hg10 mi
3:35 AM34 °FClear.3 mph60%30.06 "Hg10 mi
3:15 AM35 °FClear.5 mph60%30.06 "Hg10 mi
2:55 AM35 °FClear.No wind57%30.06 "Hg10 mi
2:15 AM37 °FClear.6 mph50%30.05 "Hg10 mi
1:55 AM35 °FClear.3 mph55%30.05 "Hg10 mi
1:35 AM37 °FClear.3 mph49%30.05 "Hg10 mi
1:15 AM38 °FClear.3 mph47%30.05 "Hg10 mi
12:55 AM38 °FClear.5 mph50%30.04 "Hg10 mi
12:35 AM40 °FClear.5 mph44%30.04 "Hg10 mi
12:15 AM40 °FClear.6 mph45%30.03 "Hg10 mi
11:55 PM
Sat, Apr 25
40 °FClear.5 mph44%30.02 "Hg10 mi
11:35 PM42 °FClear.6 mph40%30.02 "Hg10 mi
11:15 PM43 °FClear.7 mph39%30.01 "Hg10 mi
10:15 PM46 °FClear.13 mph38%29.99 "Hg10 mi
9:55 PM47 °FClear.10 mph41%29.99 "Hg10 mi
9:35 PM48 °FClear.7 mph39%29.98 "Hg10 mi
9:15 PM50 °FClear.10 mph36%29.97 "Hg10 mi
8:55 PM51 °FSunny.10 mph36%29.96 "Hg10 mi
8:35 PM53 °FSunny.12 mph36%29.94 "Hg10 mi
8:15 PM54 °FSunny.9 mph37%29.93 "Hg10 mi
7:55 PM56 °FSunny.12 mph37%29.92 "Hg10 mi
7:35 PM58 °FSunny.6 mph30%29.91 "Hg10 mi
7:15 PM59 °FSunny.9 mph27%29.90 "Hg10 mi
6:55 PM60 °FSunny.10 mph25%29.90 "Hg10 mi
6:35 PM61 °FSunny.8 mph24%29.89 "Hg10 mi
6:15 PM61 °FSunny.8 mph23%29.89 "Hg10 mi
5:55 PM62 °FSunny.13 mph23%29.88 "Hg10 mi
5:35 PM62 °FSunny.9 mph22%29.88 "Hg10 mi
5:15 PM62 °FSunny.7 mph22%29.88 "Hg10 mi
4:15 PM62 °FSunny.12 mph22%29.87 "Hg10 mi
Weather by CustomWeather, © 2015

See weather overviewHow to use our weather pages